| time (UTC) | temp C | wind direction | speed KPH | gust KPH | rain 1hr cm | rain 24hr cm | rain mn cm | humidity % | barometer mb |
| 20260507013112 | 9 | 360 | 8.0 | 12.9 | 0.03 | 4.34 | 0.20 | 83 | 1007.7 |
| 20260507010113 | 9 | 71 | 9.7 | 16.1 | 0.08 | 4.34 | 0.20 | 83 | 1006.7 |
| 20260507003112 | 9 | 48 | 4.8 | 12.9 | 0.08 | 4.67 | 0.18 | 83 | 1006.7 |
| 20260507000112 | 9 | 52 | 8.0 | 12.9 | 0.05 | 4.62 | 0.13 | 83 | 1006.7 |
| 20260506230112 | 9 | 22 | 12.9 | 17.7 | 0.08 | 4.83 | 0.08 | 83 | 1006.7 |
| 20260506223112 | 9 | 62 | 9.7 | 14.5 | 0.08 | 4.90 | 0.03 | 83 | 1006.7 |
| 20260506220112 | 10 | 2 | 8.0 | 12.9 | 0.13 | 4.88 | 0.00 | 83 | 1005.7 |
| 20260506213112 | 10 | 24 | 9.7 | 14.5 | 0.33 | 4.83 | 4.83 | 82 | 1005.7 |
| 20260506210112 | 10 | 70 | 6.4 | 9.7 | 0.46 | 4.72 | 4.72 | 83 | 1005.7 |
| 20260506203112 | 11 | 12 | 4.8 | 8.0 | 0.36 | 4.50 | 4.50 | 83 | 1005.7 |
| 20260506200112 | 11 | 339 | 6.4 | 9.7 | 0.15 | 4.29 | 4.29 | 83 | 1005.6 |
| 20260506193112 | 11 | 9 | 4.8 | 8.0 | 0.08 | 4.17 | 4.17 | 83 | 1004.6 |
| 20260506190113 | 11 | 50 | 6.4 | 12.9 | 0.10 | 4.11 | 4.11 | 83 | 1004.6 |
| 20260506183113 | 11 | 94 | 9.7 | 12.9 | 0.18 | 4.09 | 4.09 | 83 | 1004.6 |
| 20260506173113 | 11 | 346 | 0.0 | 6.4 | 0.03 | 3.91 | 3.91 | 82 | 1004.6 |
| 20260506170132 | 11 | 30 | 0.0 | 6.4 | 0.03 | 3.89 | 3.89 | 81 | 1004.6 |
| 20260506163113 | 11 | 27 | 6.4 | 8.0 | 0.15 | 3.89 | 3.89 | 80 | 1004.6 |
| 20260506153113 | 11 | 106 | 6.4 | 9.7 | 0.13 | 3.73 | 3.73 | 79 | 1004.6 |
| 20260506150113 | 11 | 48 | 8.0 | 14.5 | 0.20 | 3.66 | 3.66 | 78 | 1004.6 |
| 20260506143113 | 11 | 52 | 6.4 | 9.7 | 0.20 | 3.61 | 3.61 | 79 | 1004.6 |
| 20260506140113 | 11 | 62 | 6.4 | 20.9 | 0.03 | 3.45 | 3.45 | 78 | 1004.6 |
| 20260506133113 | 11 | 59 | 6.4 | 12.9 | 0.03 | 3.40 | 3.40 | 77 | 1004.6 |
| 20260506130113 | 11 | 82 | 9.7 | 12.9 | 0.08 | 3.40 | 3.40 | 78 | 1004.6 |
| 20260506123113 | 11 | 56 | 6.4 | 12.9 | 0.10 | 3.38 | 3.38 | 80 | 1003.6 |
| 20260506120113 | 10 | 360 | 6.4 | 11.3 | 0.13 | 3.35 | 3.35 | 81 | 1004.7 |
| 20260506113113 | 10 | 1 | 8.0 | 14.5 | 0.13 | 3.28 | 3.28 | 80 | 1004.7 |
| 20260506103113 | 10 | 45 | 6.4 | 9.7 | 0.05 | 3.15 | 3.15 | 78 | 1004.7 |
| 20260506093114 | 9 | 74 | 11.3 | 14.5 | 0.08 | 3.10 | 3.10 | 79 | 1003.7 |
| 20260506090114 | 9 | 75 | 11.3 | 16.1 | 0.13 | 3.05 | 3.05 | 77 | 1003.7 |
| 20260506083114 | 9 | 75 | 12.9 | 17.7 | 0.18 | 3.02 | 3.02 | 78 | 1003.7 |
| 20260506080114 | 9 | 19 | 4.8 | 12.9 | 0.20 | 2.95 | 2.92 | 81 | 1003.7 |
| 20260506073114 | 9 | 41 | 8.0 | 12.9 | 0.30 | 2.84 | 2.84 | 81 | 1003.7 |
| 20260506060133 | 9 | 11 | 6.4 | 9.7 | 0.43 | 2.34 | 2.31 | 81 | 1002.7 |
| 20260506050134 | 9 | 32 | 6.4 | 9.7 | 0.33 | 1.93 | 1.88 | 80 | 1003.7 |
| 20260506043114 | 9 | 43 | 9.7 | 14.5 | 0.38 | 1.85 | 1.75 | 80 | 1003.7 |
| 20260506033113 | 10 | 71 | 0.0 | 12.9 | 0.41 | 1.50 | 1.35 | 81 | 1003.7 |
| 20260506030113 | 10 | 31 | 4.8 | 8.0 | 0.38 | 1.27 | 1.14 | 82 | 1003.6 |
| 20260506023114 | 10 | 32 | 9.7 | 12.9 | 0.41 | 1.14 | 0.97 | 82 | 1003.6 |
| 20260506020114 | 11 | 61 | 9.7 | 14.5 | 0.36 | 0.91 | 0.74 | 82 | 1003.6 |